Location: Valentinhaft
(48.0370°N, 13.1914°E)
Time: 13:43:46
(UTC+01:00)

ISS - Visible Passes

Search period start: 21 January 2021 00:00
Search period end: 31 January 2021 00:00
Orbit: 418 x 419 km, 51.6° (Epoch: 21 January)

Date Brightness Start Highest point End Pass type
(mag) Time Alt. Az. Time Alt. Az. Time Alt. Az.
21 Jan -2.4 17:54:40 10° SSW 17:57:33 27° SE 17:59:24 17° E visible
21 Jan -1.5 19:30:47 10° WSW 19:32:21 25° W 19:32:21 25° W visible
22 Jan -3.9 18:43:01 10° WSW 18:46:23 85° SSE 18:46:41 72° E visible
23 Jan -3.5 17:55:20 10° SW 17:58:39 60° SSE 18:00:58 18° ENE visible
23 Jan -1.5 19:32:16 10° W 19:33:55 25° WNW 19:33:55 25° WNW visible
24 Jan -3.5 18:44:22 10° W 18:47:42 57° NNW 18:48:08 51° NNE visible
25 Jan -3.7 17:56:31 10° WSW 17:59:53 72° NNW 18:02:20 17° ENE visible
25 Jan -1.5 19:33:43 10° WNW 19:35:17 23° WNW 19:35:17 23° WNW visible
26 Jan -3.2 18:45:49 10° W 18:49:05 44° N 18:49:27 42° NNE visible
27 Jan -3.2 17:57:54 10° W 18:01:11 48° N 18:03:37 16° ENE visible
27 Jan -1.5 19:35:03 10° WNW 19:36:33 23° NW 19:36:33 23° NW visible
28 Jan -3.2 18:47:11 10° WNW 18:50:26 44° N 18:50:43 43° NNE visible
29 Jan -3.1 17:59:17 10° WNW 18:02:32 43° N 18:04:54 16° ENE visible
29 Jan -1.6 19:36:13 10° WNW 19:37:51 26° WNW 19:37:51 26° WNW visible
30 Jan -3.7 18:48:22 10° WNW 18:51:43 59° NNE 18:52:04 54° NE visible
